| time (UTC) | temp F | wind direction | speed MPH | gust MPH | rain 1hr in | rain 24hr in | rain mn in | humidity % | barometer mb |
| 20260505184559 | 46 | 230 | 3.0 | 7.0 | 0.00 | 0.00 | 0.00 | 60 | 1010.5 |
| 20260505183057 | 46 | 189 | 5.0 | 10.0 | 0.00 | 0.00 | 0.00 | 58 | 1010.4 |
| 20260505181556 | 48 | 204 | 4.0 | 11.0 | 0.00 | 0.00 | 0.00 | 55 | 1010.3 |
| 20260505180100 | 49 | 170 | 5.0 | 10.0 | 0.00 | 0.00 | 0.00 | 53 | 1010.2 |
| 20260505174555 | 50 | 203 | 5.0 | 12.0 | 0.00 | 0.00 | 0.00 | 52 | 1010.3 |
| 20260505173054 | 50 | 209 | 7.0 | 11.0 | 0.00 | 0.00 | 0.00 | 50 | 1010.3 |
| 20260505171556 | 51 | 227 | 5.0 | 12.0 | 0.00 | 0.00 | 0.00 | 50 | 1010.3 |
| 20260505170053 | 51 | 168 | 5.0 | 11.0 | 0.00 | 0.00 | 0.00 | 51 | 1010.2 |
| 20260505164551 | 51 | 174 | 7.0 | 14.0 | 0.00 | 0.00 | 0.00 | 47 | 1010.1 |
| 20260505163051 | 49 | 230 | 6.0 | 12.0 | 0.00 | 0.00 | 0.00 | 48 | 1010.1 |
| 20260505161550 | 48 | 248 | 8.0 | 18.0 | 0.00 | 0.00 | 0.00 | 46 | 1010.1 |
| 20260505153052 | 51 | 217 | 10.0 | 15.0 | 0.00 | 0.00 | 0.00 | 43 | 1009.9 |
| 20260505151549 | 51 | 184 | 12.0 | 19.0 | 0.00 | 0.00 | 0.00 | 39 | 1009.6 |
| 20260505124535 | 52 | 325 | 3.0 | 13.0 | 0.00 | 0.00 | 0.00 | 28 | 1009.8 |
| 20260505123033 | 51 | 289 | 2.0 | 10.0 | 0.00 | 0.00 | 0.00 | 30 | 1009.9 |
| 20260505121537 | 51 | 304 | 5.0 | 13.0 | 0.00 | 0.00 | 0.00 | 28 | 1009.9 |
| 20260505120029 | 51 | 234 | 2.0 | 11.0 | 0.00 | 0.00 | 0.00 | 32 | 1009.8 |
| 20260505114525 | 50 | 186 | 6.0 | 16.0 | 0.00 | 0.00 | 0.00 | 35 | 1010.0 |
| 20260505113037 | 50 | 340 | 7.0 | 15.0 | 0.00 | 0.00 | 0.00 | 32 | 1010.0 |
| 20260505111538 | 49 | 309 | 6.0 | 13.0 | 0.00 | 0.00 | 0.00 | 30 | 1010.1 |
| 20260505101523 | 47 | 304 | 6.0 | 12.0 | 0.00 | 0.00 | 0.00 | 37 | 1010.1 |
| 20260505100012 | 46 | 298 | 4.0 | 12.0 | 0.00 | 0.00 | 0.00 | 36 | 1010.2 |
| 20260505094509 | 46 | 290 | 1.0 | 13.0 | 0.00 | 0.00 | 0.00 | 42 | 1010.2 |
| 20260505093008 | 46 | 256 | 2.0 | 11.0 | 0.00 | 0.00 | 0.00 | 39 | 1010.1 |
| 20260505091505 | 45 | 294 | 2.0 | 11.0 | 0.00 | 0.00 | 0.00 | 39 | 1010.2 |
| 20260505090005 | 44 | 318 | 2.0 | 8.0 | 0.00 | 0.00 | 0.00 | 41 | 1010.2 |
| 20260505084505 | 44 | 293 | 6.0 | 11.0 | 0.00 | 0.00 | 0.00 | 40 | 1010.2 |
| 20260505083108 | 44 | 268 | 6.0 | 10.0 | 0.00 | 0.00 | 0.00 | 44 | 1010.1 |
| 20260505081559 | 43 | 300 | 3.0 | 11.0 | 0.00 | 0.00 | 0.00 | 45 | 1010.0 |
| 20260505080056 | 43 | 332 | 3.0 | 9.0 | 0.00 | 0.00 | 0.00 | 46 | 1009.9 |
| 20260505074555 | 42 | 323 | 1.0 | 9.0 | 0.00 | 0.00 | 0.00 | 46 | 1009.8 |
| 20260505073056 | 42 | 337 | 3.0 | 9.0 | 0.00 | 0.00 | 0.00 | 46 | 1009.7 |
| 20260505071554 | 41 | 34 | 3.0 | 12.0 | 0.00 | 0.00 | 0.00 | 48 | 1009.6 |
| 20260505064555 | 40 | 336 | 3.0 | 9.0 | 0.00 | 0.00 | 0.00 | 51 | 1009.7 |
| 20260505063049 | 39 | 344 | 5.0 | 9.0 | 0.00 | 0.00 | 0.00 | 52 | 1009.6 |
| 20260505061611 | 39 | 273 | 3.0 | 10.0 | 0.00 | 0.00 | 0.00 | 54 | 1009.7 |
| 20260505060053 | 38 | 281 | 4.0 | 8.0 | 0.00 | 0.00 | 0.00 | 56 | 1009.5 |
| 20260505054549 | 37 | 339 | 3.0 | 5.0 | 0.00 | 0.00 | 0.00 | 59 | 1009.5 |
| 20260505053045 | 36 | 265 | 3.0 | 6.0 | 0.00 | 0.00 | 0.00 | 60 | 1009.4 |
| 20260505051544 | 36 | 251 | 1.0 | 4.0 | 0.00 | 0.00 | 0.00 | 61 | 1009.3 |
| 20260505041538 | 32 | 205 | 0.0 | 4.0 | 0.00 | 0.00 | 0.00 | 69 | 1008.8 |
| 20260505040051 | 32 | 228 | 2.0 | 3.0 | 0.00 | 0.00 | 0.00 | 72 | 1008.6 |
| 20260505034541 | 31 | 175 | 1.0 | 3.0 | 0.00 | 0.00 | 0.00 | 73 | 1008.5 |
| 20260505033032 | 32 | 97 | 0.0 | 2.0 | 0.00 | 0.00 | 0.00 | 70 | 1008.5 |
| 20260505031528 | 33 | 79 | 2.0 | 4.0 | 0.00 | 0.00 | 0.00 | 68 | 1008.5 |
| 20260505030027 | 33 | 322 | 0.0 | 4.0 | 0.00 | 0.00 | 0.00 | 67 | 1008.3 |
| 20260505024523 | 34 | 238 | 0.0 | 4.0 | 0.00 | 0.00 | 0.00 | 67 | 1008.1 |
| 20260505023021 | 34 | 325 | 1.0 | 4.0 | 0.00 | 0.00 | 0.00 | 66 | 1008.1 |
| 20260505021520 | 35 | 270 | 1.0 | 4.0 | 0.00 | 0.00 | 0.00 | 66 | 1008.1 |
| 20260505020020 | 35 | 238 | 2.0 | 6.0 | 0.00 | 0.00 | 0.00 | 66 | 1007.9 |
| 20260505014515 | 36 | 248 | 1.0 | 4.0 | 0.00 | 0.00 | 0.00 | 63 | 1007.7 |
| 20260505013011 | 37 | 287 | 2.0 | 8.0 | 0.00 | 0.00 | 0.00 | 61 | 1007.6 |
| 20260505011509 | 37 | 292 | 2.0 | 8.0 | 0.00 | 0.00 | 0.00 | 61 | 1007.6 |
| 20260505010006 | 37 | 277 | 1.0 | 4.0 | 0.00 | 0.00 | 0.00 | 61 | 1007.3 |
| 20260505004506 | 38 | 261 | 1.0 | 5.0 | 0.00 | 0.00 | 0.00 | 62 | 1007.3 |
| 20260505003100 | 38 | 226 | 1.0 | 12.0 | 0.00 | 0.00 | 0.00 | 60 | 1007.3 |
| 20260505001557 | 39 | 268 | 4.0 | 11.0 | 0.00 | 0.00 | 0.00 | 59 | 1006.8 |
| 20260505000106 | 39 | 272 | 8.0 | 15.0 | 0.00 | 0.00 | 0.00 | 59 | 1006.4 |
| 20260504234604 | 39 | 272 | 5.0 | 12.0 | 0.00 | 0.00 | 0.00 | 58 | 1006.6 |
| 20260504233050 | 40 | 249 | 3.0 | 10.0 | 0.00 | 0.00 | 0.00 | 57 | 1006.7 |
| 20260504231550 | 40 | 265 | 1.0 | 8.0 | 0.00 | 0.00 | 0.00 | 58 | 1006.8 |
| 20260504230045 | 41 | 281 | 3.0 | 7.0 | 0.00 | 0.00 | 0.00 | 56 | 1006.7 |
| 20260504224542 | 41 | 280 | 4.0 | 14.0 | 0.00 | 0.00 | 0.00 | 57 | 1006.3 |
| 20260504223040 | 42 | 279 | 2.0 | 13.0 | 0.00 | 0.00 | 0.00 | 58 | 1006.2 |
| 20260504221540 | 42 | 286 | 3.0 | 14.0 | 0.00 | 0.00 | 0.00 | 57 | 1006.0 |
| 20260504220045 | 43 | 288 | 4.0 | 13.0 | 0.00 | 0.00 | 0.00 | 59 | 1005.9 |
| 20260504214535 | 43 | 297 | 6.0 | 13.0 | 0.00 | 0.00 | 0.00 | 61 | 1005.5 |
| 20260504213031 | 44 | 302 | 5.0 | 12.0 | 0.00 | 0.00 | 0.00 | 62 | 1005.4 |
| 20260504211528 | 45 | 331 | 7.0 | 14.0 | 0.00 | 0.00 | 0.00 | 61 | 1005.4 |
| 20260504210021 | 45 | 346 | 8.0 | 15.0 | 0.00 | 0.00 | 0.00 | 59 | 1005.1 |
| 20260504204528 | 46 | 328 | 4.0 | 12.0 | 0.00 | 0.00 | 0.00 | 61 | 1005.2 |
| 20260504203016 | 46 | 300 | 4.0 | 16.0 | 0.00 | 0.00 | 0.00 | 63 | 1004.9 |
| 20260504201515 | 47 | 331 | 7.0 | 19.0 | 0.00 | 0.00 | 0.00 | 67 | 1004.7 |
| 20260504200014 | 50 | 290 | 5.0 | 17.0 | 0.00 | 0.00 | 0.00 | 58 | 1004.1 |
| 20260504194515 | 51 | 273 | 6.0 | 15.0 | 0.00 | 0.00 | 0.00 | 57 | 1003.9 |
| 20260504193015 | 52 | 261 | 7.0 | 17.0 | 0.00 | 0.00 | 0.00 | 56 | 1003.8 |
| 20260504191512 | 52 | 197 | 7.0 | 11.0 | 0.00 | 0.00 | 0.00 | 54 | 1003.4 |
| 20260504190013 | 53 | 225 | 6.0 | 13.0 | 0.00 | 0.00 | 0.00 | 52 | 1003.3 |